Orbital Elements at Epoch 2459000.5 (2020-May-31.0) TDB
Reference: JPL 20 (heliocentric ecliptic J2000)
Element | Value | Uncertainty (1-sigma) | Units |
e | .2058659968172713 | 4.7596e-08 | |
a | 2.35292164661147 | 6.2794e-09 | au |
q | 1.868535086398864 | 1.1274e-07 | au |
i | 5.433970221540736 | 4.7954e-06 | deg |
node | 14.39933538727755 | 3.7281e-05 | deg |
peri | 10.40918182460966 | 3.8945e-05 | deg |
M | 258.0806107458311 | 9.8539e-06 | deg |
tp | 2459373.719164598952 (2021-Jun-08.21916460) | 3.6694e-05 | TDB |
period | 1318.285953623168 3.61 | 5.2773e-06 1.445e-08 | d yr |
n | .2730818749988033 | 1.0932e-09 | deg/d |
Q | 2.837308206824075 | 7.5721e-09 | au |
|
| | Orbit Determination Parameters
Additional Information
|